Welcome to the New NWS' Forecast!
Most changes are behind the scenes, but click here for differences you might notice.
Latest weather observations around

Anniston Metro Airport (KANB)

Using English Units (Switch to International System of Units)
Date/ Time (CST) Wind (mph) Vis. (mi) Weather Sky Cond. Temp (°F) Rel. Humidity Wind Chill (°F) Heat Index (°F) Pressure Precip. (in)
Air Dwpt 6 hour Altimeter (inHg) Sea level (inHg) 1 hr 3 hr 6 hr
Max Min
Jan 21 21:53 Calm 10 Clear CLR 46 41     82%     30.15 30.16      
Jan 21 20:53 NE 3 10 Clear CLR 46 41     82% 45   30.13 30.14      
Jan 21 19:53 Calm 10 Clear CLR 48 42     80%     30.15 30.17      
Jan 21 18:53 Calm 10 Clear CLR 52 43     71%     30.16 30.18      
Jan 21 17:53 Calm 10 Clear CLR 56 44     64%     30.15 30.16      
Jan 21 16:53 SSE 5 10 Clear CLR 65 44     47%     30.14 30.16      
Jan 21 15:53 SSE 8 10 Clear CLR 69 43     39%     30.14 30.15      
Jan 21 14:53 ESE 8 10 Clear CLR 70 43     38%     30.14 30.15      
Jan 21 13:53 S 7 10 Clear CLR 71 43     36%   70 30.15 30.15      
Jan 21 12:53 Calm 10 Clear CLR 70 43     38%     30.18 30.19      
Jan 21 11:53 Calm 10 Clear CLR 65 42     43%     30.22 30.23      
Jan 21 10:53 Calm 10 Clear CLR 62 41     46%     30.27 30.28      
Jan 21 09:53 ENE 5 10 Clear CLR 55 40     57%     30.29 30.3      
Jan 21 08:53 E 5 10 Clear CLR 45 37     74% 43   30.29 30.32      
Jan 21 07:53 Calm 10 Clear CLR 39 35     86%     30.28 30.3      
Jan 21 06:53 Calm 10 Clear CLR 34 32     92%     30.25 30.28      
Jan 21 05:53 Calm 10 Clear CLR 34 30     85%     30.26 30.28      
Jan 21 04:53 Calm 10 Clear CLR 34 31     88%     30.24 30.26      
Jan 21 03:53 Calm 10 Clear CLR 35 32     88%     30.24 30.25      
Jan 21 02:53 NNE 3 10 Clear CLR 34 31     88% 31   30.23 30.24      
Jan 21 01:53 E 3 10 Clear CLR 35 32     88% 32   30.24 30.25      
Jan 21 00:53 NE 3 10 Clear CLR 36 32     85% 33   30.23 30.25      
Jan 20 23:53 NE 3 10 Clear CLR 36 33     89% 33   30.24 30.26      
Jan 20 22:53 Calm 10 Clear CLR 37 33     85%     30.25 30.27      
Jan 20 21:53 Calm 10 Clear CLR 39 34     82%     30.25 30.27      
Jan 20 20:53 Calm 10 Clear CLR 40 35     83%     30.26 30.29      
Jan 20 19:53 Calm 10 Clear CLR 42 36     79%     30.26 30.29      
Jan 20 18:53 Calm 10 Clear CLR 44 36     73%     30.25 30.28      
Jan 20 17:53 Calm 10 Clear CLR 48 37     66%     30.24 30.26      
Jan 20 16:53 WSW 6 10 Clear CLR 56 37     49%     30.23 30.24      
Jan 20 15:53 SW 7 10 Clear CLR 61 37     41%     30.22 30.24      
Jan 20 14:53 WSW 8 10 Clear CLR 62 36     38%     30.22 30.23      
Jan 20 13:53 3 10 Clear CLR 61 35     38%     30.22 30.24      
Jan 20 12:53 W 5 10 Clear CLR 60 32     35%     30.25 30.27      
Jan 20 11:53 WSW 6 10 Clear CLR 57 30     36%     30.27 30.29      
Jan 20 10:53 W 9 10 Cloudy OVC050 54 27     35%     30.3 30.32      
Jan 20 09:53 Calm 10 Cloudy OVC048 49 26     41%     30.31 30.34      
Jan 20 08:53 Calm 10 Cloudy OVC043 40 24     53%     30.31 30.34      
Jan 20 07:53 Calm 10 Cloudy OVC044 36 24     62%     30.3 30.33      
Jan 20 06:53 Calm 10 Cloudy OVC042 35 23     61%     30.29 30.32      
Jan 20 05:53 Calm 10 Cloudy OVC040 34 23     64%     30.28 30.31      
Jan 20 04:53 Calm 10 Cloudy OVC039 33 23     66%     30.28 30.3      
Jan 20 03:53 Calm 10 Cloudy OVC039 32 22     66%     30.28 30.3      
Jan 20 02:53 ENE 5 10 Cloudy OVC039 30 21     69% 25   30.27 30.3      
Jan 20 01:53 Calm 10 Cloudy OVC040 27 21     78%     30.28 30.31      
Jan 20 00:53 Calm 10 Clear CLR 26 21     81%     30.28 30.31      
Jan 19 23:53 Calm 10 Clear CLR 26 20     77%     30.28 30.31      
Jan 19 22:53 Calm 10 Clear CLR 27 20     75%     30.28 30.31      
Jan 19 21:53 Calm 10 Clear CLR 28 20     71%     30.28 30.32      
Jan 19 20:53 Calm 10 Clear CLR 29 20     69%     30.27 30.32      
Jan 19 19:53 Calm 10 Clear CLR 31 20     63%     30.27 30.31      
Jan 19 18:53 Calm 10 Clear CLR 32 18     56%     30.25 30.3      
Jan 19 17:53 Calm 10 Clear CLR 37 16     42%     30.24 30.28      
Jan 19 16:53 WSW 3 10 Clear CLR 45 12     26% 44   30.25 30.29      
Jan 19 15:53 SW 8 10 Clear CLR 50 9     19% 47   30.26 30.3      
Jan 19 14:53 SW 8 10 Clear CLR 50 8     18% 47   30.26 30.29      
Jan 19 13:53 SW 8 10 Clear CLR 49 11     21% 45   30.27 30.3      
Jan 19 12:53 SW 7 10 Clear CLR 47 10     22% 44   30.29 30.32      
Jan 19 11:53 WSW 9 10 Clear CLR 45 15     30% 40   30.33 30.37      
Jan 19 10:53 5 10 Clear CLR 42 17     36% 39   30.36 30.4      
Jan 19 08:53 Calm 10 Clear CLR 27 22     81%     30.38 30.43      
Jan 19 07:53 Calm 10 Clear CLR 20 17     88%     30.36 30.42      
Jan 19 06:53 Calm 10 Clear CLR 16 11     80%     30.36 30.42      
Jan 19 05:53 Calm 10 Clear CLR 17 11     76%     30.35 30.4      
Jan 19 04:53 Calm 10 Clear CLR 17 12     80%     30.35 30.4      
Jan 19 03:53 WSW 5 10 Clear CLR 17 13     83% 10   30.37 30.41      
Jan 19 02:53 Calm 10 Clear CLR 19 14     80%     30.36 30.4      
Jan 19 01:53 Calm 10 Clear CLR 18 13     80%     30.35 30.39      
Jan 19 00:53 WSW 3 10 Clear CLR 20 16     84% 15   30.37 30.41      
Jan 18 23:53 WNW 3 10 Clear CLR 21 16     81% 16   30.37 30.41      
Jan 18 22:53 Calm 10 Clear CLR 20 16     84%     30.37 30.42      
Jun 11 20:53 Calm 10 Partly Cloudy SCT048 SCT080 80 70     71%   83 30.11 30.08      
Jun 11 08:33 ENE 5 10 Partly Cloudy SCT018 76 69     79%   77 30.19        
Jun 10 18:53 SSE 5 10 Clear CLR 83 62     49%   84 30.05 30.03      
Jun 09 15:53 WSW 8 10 Clear CLR 83 57     41%   82 29.95 29.93      
Jun 09 00:53 Calm 10 Clear CLR 64 60     87%     29.92 29.9